QPF
0.00 0.00 0.00 0.00 0.00 0.00 0.00 0.00 0.00 0.00 0.00 0.00 0.00 0.00 0.00 0.00 0.00 0.00 0.00 0.00 0.00 0.00 0.00 0.00 0.00 0.00 0.00 0.00 0.00 0.00 0.00 0.00 0.00 0.00 0.00 0.00 0.00 0.00 0.00 0.00 0.00 0.00 0.00 0.00 0.00
0.00 0.00 0.00 0.00 0.00 0.00 0.00 0.00 0.00 0.00 0.00 0.00 0.00 0.00 0.00 0.00 0.00 0.00 0.00 0.00 0.00 0.00 0.00 0.00 0.00 0.00 0.00 0.00 0.00 0.00 0.00 0.00 0.00 0.00 0.00 0.00 0.00 0.00 0.00 0.00 0.00 0.00 0.00 0.00 0.00
0.00 0.00 0.00 0.00 0.00 0.00 0.00 0.00 0.00 0.00 0.00 0.00 0.00 0.00 0.00 0.00 0.00 0.00 0.00 0.00 0.00 0.00 0.00 0.00 0.00 0.00 0.00 0.00 0.00 0.00 0.00 0.00 0.00 0.00 0.00 0.00 0.00 0.00 0.00 0.00 0.00 0.00 0.00 0.00 0.00
0.00 0.00 0.00 0.00 0.00 0.00 0.00 0.00 0.00 0.00 0.00 0.00 0.00 0.00 0.00 0.00 0.00 0.00 0.00 0.00 0.00 0.00 0.00 0.00 0.00 0.00 0.00 0.00 0.00 0.00 0.00 0.00 0.00 0.00 0.00 0.00 0.00 0.00 0.00 0.00 0.00 0.00 0.00 0.00 0.00
0.00 0.00 0.00 0.00 0.00 0.00 0.00 0.00 0.00 0.00 0.00 0.00 0.00 0.00 0.00 0.00 0.00 0.00 0.00 0.00 0.00 0.00 0.00 0.00 0.00 0.00 0.00 0.00 0.00 0.00 0.00 0.00 0.00 0.00 0.00 0.00 0.00 0.00 0.00 0.00 0.00 0.00 0.00 0.00 0.00
0.00 0.00 0.00 0.00 0.00 0.00 0.00 0.00 0.00 0.00 0.00 0.00 0.00 0.00 0.00 0.00 0.00 0.00 0.00 0.00 0.00 0.00 0.00 0.00 0.00 0.00 0.00 0.00 0.00 0.00 0.00 0.00 0.00 0.00 0.00 0.00 0.00 0.00 0.00 0.00 0.00 0.00 0.00 0.00 0.00
0.00 0.00 0.00 0.00 0.00 0.00 0.00 0.00 0.00 0.00 0.00 0.00 0.00 0.00 0.00 0.00 0.00 0.00 0.00 0.00 0.00 0.00 0.00 0.00 0.00 0.00 0.00 0.00 0.00 0.00 0.00 0.00 0.00 0.00 0.00 0.00 0.00 0.00 0.00 0.00 0.00 0.00 0.00 0.00 0.00
0.00 0.00 0.00 0.00 0.00 0.00 0.00 0.00 0.00 0.00 0.00 0.00 0.00 0.00 0.00 0.00 0.00 0.00 0.00 0.00 0.00 0.00 0.00 0.00 0.00 0.00 0.00 0.00 0.00 0.00 0.00 0.00 0.00 0.00 0.00 0.00 0.00 0.00 0.00 0.00 0.00 0.00 0.00 0.00 0.00
0.00 0.00 0.00 0.00 0.00 0.00 0.00 0.00 0.00 0.00 0.00 0.00 0.00 0.00 0.00 0.00 0.00 0.00 0.00 0.00 0.00 0.00 0.00 0.00 0.00 0.00 0.00 0.00 0.00 0.00 0.00 0.00 0.00 0.00 0.00 0.00 0.00 0.00 0.00 0.00 0.00 0.00 0.00 0.00 0.00
0.00 0.00 0.00 0.00 0.00 0.00 0.00 0.00 0.00 0.00 0.00 0.00 0.00 0.00 0.00 0.00 0.00 0.00 0.00 0.00 0.00 0.00 0.00 0.00 0.00 0.00 0.00 0.00 0.00 0.00 0.00 0.00 0.00 0.00 0.00 0.00 0.00 0.00 0.00 0.00 0.00 0.00 0.00 0.00 0.00
0.00 0.00 0.00 0.00 0.00 0.00 0.00 0.00 0.00 0.00 0.00 0.00 0.00 0.00 0.00 0.00 0.00 0.00 0.00 0.00 0.00 0.00 0.00 0.00 0.00 0.00 0.00 0.00 0.00 0.00 0.00 0.00 0.00 0.00 0.00 0.00 0.00 0.00 0.00 0.00 0.00 0.00 0.00 0.00 0.00
0.00 0.00 0.00 0.00 0.00 0.00 0.00 0.00 0.00 0.00 0.00 0.00 0.00 0.00 0.00 0.00 0.00 0.00 0.00 0.00 0.00 0.00 0.00 0.00 0.00 0.00 0.00 0.00 0.00 0.00 0.00 0.00 0.00 0.00 0.00 0.00 0.00 0.00 0.00 0.00 0.00 0.00 0.00 0.00 0.00
0.00 0.00 0.00 0.00 0.00 0.00 0.00 0.00 0.00 0.00 0.00 0.00 0.00 0.00 0.00 0.00 0.00 0.00 0.00 0.00 0.00 0.00 0.00 0.00 0.00 0.00 0.00 0.00 0.00 0.00 0.00 0.00 0.00 0.00 0.00 0.00 0.00 0.00 0.00 0.00 0.00 0.00 0.00 0.00 0.00
0.00 0.00 0.00 0.00 0.00 0.00 0.00 0.00 0.00 0.00 0.00 0.00 0.00 0.00 0.00 0.00 0.00 0.00 0.00 0.00 0.00 0.00 0.00 0.00 0.00 0.00 0.00 0.00 0.00 0.00 0.00 0.00 0.00 0.00 0.00 0.00 0.00 0.00 0.00 0.00 0.00 0.00 0.00 0.00 0.00
0.00 0.00 0.00 0.00 0.00 0.00 0.00 0.00 0.00 0.00 0.00 0.00 0.00 0.00 0.00 0.00 0.00 0.00 0.00 0.00 0.00 0.00 0.00 0.00 0.00 0.00 0.00 0.00 0.00 0.00 0.00 0.00 0.00 0.00 0.00 0.00 0.00 0.00 0.00 0.00 0.00 0.00 0.00 0.00 0.00
0.00 0.00 0.00 0.00 0.00 0.00 0.00 0.00 0.00 0.00 0.00 0.00 0.00 0.00 0.00 0.00 0.00 0.00 0.00 0.00 0.00 0.00 0.00 0.00 0.00 0.00 0.00 0.00 0.00 0.00 0.00 0.00 0.00 0.00 0.00 0.00 0.00 0.00 0.00 0.00 0.00 0.00 0.00 0.00 0.00
0.00 0.00 0.00 0.00 0.00 0.00 0.00 0.00 0.00 0.00 0.00 0.00 0.00 0.00 0.00 0.00 0.00 0.00 0.00 0.00 0.00 0.00 0.00 0.00 0.00 0.00 0.00 0.00 0.00 0.00 0.00 0.00 0.00 0.00 0.00 0.00 0.00 0.00 0.00 0.00 0.00 0.00 0.00 0.00 0.00
0.00 0.00 0.00 0.00 0.00 0.00 0.00 0.00 0.00 0.00 0.00 0.00 0.00 0.00 0.00 0.00 0.00 0.00 0.00 0.00 0.00 0.00 0.00 0.00 0.00 0.00 0.00 0.00 0.00 0.00 0.00 0.00 0.00 0.00 0.00 0.00 0.00 0.00 0.00 0.00 0.00 0.00 0.00 0.00 0.00
0.00 0.00 0.00 0.00 0.00 0.00 0.00 0.00 0.00 0.00 0.00 0.00 0.00 0.00 0.00 0.00 0.00 0.00 0.00 0.00 0.00 0.00 0.00 0.00 0.00 0.00 0.00 0.00 0.00 0.00 0.00 0.00 0.00 0.00 0.00 0.00 0.00 0.00 0.00 0.00 0.00 0.00 0.00 0.00 0.00
0.00 0.00 0.00 0.00 0.00 0.00 0.00 0.00 0.00 0.00 0.00 0.00 0.00 0.00 0.00 0.00 0.00 0.00 0.00 0.00 0.00 0.00 0.00 0.00 0.00 0.00 0.00 0.00 0.00 0.00 0.00 0.00 0.00 0.00 0.00 0.00 0.00 0.00 0.00 0.00 0.00 0.00 0.00 0.00 0.00
0.00 0.00 0.00 0.00 0.00 0.00 0.00 0.00 0.00 0.00 0.00 0.00 0.00 0.00 0.00 0.00 0.00 0.00 0.00 0.00 0.00 0.00 0.00 0.00 0.00 0.00 0.00 0.00 0.00 0.00 0.00 0.00 0.00 0.00 0.00 0.00 0.00 0.00 0.00 0.00 0.00 0.00 0.00 0.00 0.00
0.00 0.00 0.00 0.00 0.00 0.00 0.00 0.00 0.00 0.00 0.00 0.00 0.00 0.00 0.00 0.00 0.00 0.00 0.00 0.00 0.00 0.00 0.00 0.00 0.00 0.00 0.00 0.00 0.00 0.00 0.00 0.00 0.00 0.00 0.00 0.00 0.00 0.00 0.00 0.00 0.00 0.00 0.00 0.00 0.00
0.00 0.00 0.00 0.00 0.00 0.00 0.00 0.00 0.00 0.00 0.00 0.00 0.00 0.00 0.00 0.00 0.00 0.00 0.00 0.00 0.00 0.00 0.00 0.00 0.00 0.00 0.00 0.00 0.00 0.00 0.00 0.00 0.00 0.00 0.00 0.00 0.00 0.00 0.00 0.00 0.00 0.00 0.00 0.00 0.00
0.00 0.00 0.00 0.00 0.00 0.00 0.00 0.00 0.00 0.00 0.00 0.00 0.00 0.00 0.00 0.00 0.00 0.00 0.00 0.00 0.00 0.00 0.00 0.00 0.00 0.00 0.00 0.00 0.00 0.00 0.00 0.00 0.00 0.00 0.00 0.00 0.00 0.00 0.00 0.00 0.00 0.00 0.00 0.00 0.00
0.00 0.00 0.00 0.00 0.00 0.00 0.00 0.00 0.00 0.00 0.00 0.00 0.00 0.00 0.00 0.00 0.00 0.00 0.00 0.00 0.00 0.00 0.00 0.00 0.00 0.00 0.00 0.00 0.00 0.00 0.00 0.00 0.00 0.00 0.00 0.00 0.00 0.00 0.00 0.00 0.00 0.00 0.00 0.00 0.00
0.00 0.00 0.00 0.00 0.00 0.00 0.00 0.00 0.00 0.00 0.00 0.00 0.00 0.00 0.00 0.00 0.00 0.00 0.00 0.00 0.00 0.00 0.00 0.00 0.00 0.00 0.00 0.00 0.00 0.00 0.00 0.00 0.00 0.00 0.00 0.00 0.00 0.00 0.00 0.00 0.00 0.00 0.00 0.00 0.00
0.00 0.00 0.00 0.00 0.00 0.00 0.00 0.00 0.00 0.00 0.00 0.00 0.00 0.00 0.00 0.00 0.00 0.00 0.00 0.00 0.00 0.00 0.00 0.00 0.00 0.00 0.00 0.00 0.00 0.00 0.00 0.00 0.00 0.00 0.00 0.00 0.00 0.00 0.00 0.00 0.00 0.00 0.00 0.00 0.00
MSLP
1017.38 1017.48 1017.16 1016.93 1016.84 1016.70 1016.75 1016.68 1016.31 1016.20 1015.94 1015.64 1015.45 1015.14 1014.81 1014.37 1013.59 1013.31 1012.56 1010.54 1010.54 1010.49 1010.36 1010.32 1010.39 1010.62 1010.85 1011.46 1011.94 1012.82 1014.15 1014.81 1014.49 1014.28 1013.76 1013.94 1014.21 1014.48 1014.48 1015.11 1015.03 1014.93 1015.08 1015.34 1015.91
1017.35 1017.34 1016.89 1016.89 1016.76 1016.66 1016.72 1016.59 1016.20 1016.09 1015.89 1015.69 1015.39 1015.08 1014.76 1014.40 1013.87 1012.49 1009.81 1010.06 1010.33 1010.29 1010.36 1010.50 1010.76 1010.90 1011.42 1011.64 1012.07 1012.62 1013.77 1013.59 1012.95 1012.72 1012.78 1013.40 1013.87 1014.30 1014.77 1015.10 1014.91 1014.93 1015.11 1015.45 1015.88
1017.25 1017.06 1016.78 1016.82 1016.68 1016.63 1016.59 1016.43 1016.07 1015.93 1015.84 1015.61 1015.27 1014.97 1014.73 1014.41 1013.50 1010.51 1009.20 1009.83 1010.15 1010.27 1010.36 1010.48 1010.69 1010.92 1011.36 1011.69 1011.97 1012.46 1012.55 1012.11 1011.94 1011.93 1011.94 1013.27 1013.81 1013.90 1014.53 1015.41 1014.43 1014.37 1015.14 1015.58 1015.89
1017.05 1016.77 1016.65 1016.61 1016.62 1016.53 1016.39 1016.21 1015.85 1015.76 1015.68 1015.54 1015.22 1014.84 1014.49 1014.17 1012.57 1009.71 1009.23 1009.49 1009.84 1010.16 1010.50 1010.71 1010.79 1011.11 1011.29 1011.61 1011.59 1012.09 1011.51 1011.62 1011.26 1011.18 1011.84 1012.69 1013.22 1013.79 1014.04 1013.68 1013.54 1013.97 1014.36 1015.09 1015.48
1016.81 1016.51 1016.43 1016.43 1016.45 1016.35 1016.22 1015.96 1015.61 1015.48 1015.50 1015.42 1015.11 1014.80 1014.25 1013.63 1011.64 1009.55 1009.68 1009.85 1010.07 1010.41 1010.57 1010.67 1010.70 1011.03 1011.36 1011.43 1011.48 1011.47 1010.79 1010.76 1010.75 1010.98 1011.44 1012.15 1012.57 1013.33 1013.43 1013.42 1013.60 1014.43 1015.01 1015.35 1015.72
1016.45 1016.18 1016.24 1016.26 1016.26 1016.16 1016.02 1015.73 1015.39 1015.24 1015.27 1015.26 1015.03 1014.80 1014.44 1012.60 1009.63 1009.44 1009.70 1010.03 1010.19 1010.49 1010.60 1010.53 1010.43 1010.63 1010.96 1011.10 1011.10 1010.71 1010.60 1010.26 1010.90 1011.28 1011.54 1012.11 1013.06 1013.24 1013.24 1013.64 1014.28 1014.69 1015.24 1015.88 1016.12
1016.10 1015.95 1016.09 1016.09 1016.03 1015.86 1015.77 1015.43 1015.10 1014.99 1015.06 1015.08 1014.96 1014.69 1014.16 1010.91 1009.44 1009.56 1009.60 1009.63 1009.76 1010.05 1010.18 1010.00 1009.92 1010.27 1010.52 1010.67 1010.80 1010.65 1010.76 1010.74 1010.92 1011.51 1011.93 1012.20 1013.53 1013.23 1012.88 1013.74 1014.66 1015.27 1015.72 1016.18 1016.62
1015.97 1015.91 1015.92 1015.91 1015.70 1015.63 1015.45 1014.99 1014.82 1014.83 1014.86 1014.77 1014.68 1014.50 1012.60 1009.48 1009.32 1009.53 1009.62 1009.48 1009.41 1009.52 1009.61 1009.47 1009.76 1010.14 1010.47 1010.72 1010.83 1011.21 1011.41 1011.87 1011.47 1011.37 1011.94 1011.92 1013.03 1012.94 1013.14 1013.96 1014.99 1015.44 1015.91 1016.35 1016.91
1015.90 1015.83 1015.72 1015.63 1015.45 1015.31 1015.03 1014.74 1014.56 1014.46 1014.53 1014.49 1014.50 1013.96 1011.36 1008.95 1008.99 1008.59 1008.79 1008.91 1008.81 1008.99 1009.23 1009.59 1009.71 1010.62 1011.02 1011.71 1012.03 1012.12 1012.38 1012.22 1011.76 1011.57 1011.86 1012.48 1013.54 1013.44 1013.71 1014.27 1015.07 1015.76 1016.38 1016.73 1017.29
1015.82 1015.66 1015.47 1015.42 1015.29 1015.16 1014.77 1014.53 1014.20 1014.39 1014.32 1014.29 1013.95 1013.62 1010.71 1009.56 1008.82 1008.46 1008.41 1008.52 1008.43 1008.68 1009.28 1009.81 1010.79 1011.59 1012.34 1012.38 1013.03 1012.79 1012.59 1012.41 1012.17 1012.21 1012.47 1013.19 1014.36 1014.57 1014.82 1015.38 1016.40 1016.78 1016.99 1017.43 1017.58
1015.71 1015.46 1015.32 1015.28 1015.24 1015.04 1014.29 1014.01 1014.58 1014.41 1013.73 1012.84 1012.33 1011.65 1010.25 1009.27 1008.55 1008.43 1008.14 1008.33 1008.60 1009.36 1010.45 1011.08 1011.78 1012.41 1012.39 1012.21 1012.27 1012.52 1012.67 1012.61 1012.42 1012.63 1013.20 1014.38 1015.32 1015.71 1015.87 1016.41 1016.96 1017.28 1017.53 1017.62 1017.72
1015.57 1015.26 1015.21 1015.14 1015.02 1014.69 1014.61 1014.24 1013.53 1013.43 1012.93 1011.60 1011.54 1011.07 1009.94 1009.35 1009.11 1008.28 1008.00 1008.64 1009.20 1010.24 1010.92 1011.60 1011.94 1011.82 1011.99 1012.06 1012.30 1012.59 1012.89 1012.93 1012.85 1013.02 1013.83 1015.01 1015.81 1016.43 1016.66 1017.17 1017.53 1017.81 1017.95 1017.91 1018.08
1015.37 1015.19 1015.10 1014.89 1014.69 1014.70 1014.29 1013.38 1012.90 1012.87 1013.03 1011.49 1010.81 1010.07 1009.40 1009.48 1009.29 1008.73 1008.45 1008.98 1009.58 1010.35 1010.98 1011.53 1011.46 1011.40 1011.65 1012.21 1012.51 1012.93 1012.97 1013.11 1013.54 1013.89 1014.65 1015.53 1016.54 1016.67 1016.93 1017.36 1017.73 1017.90 1018.13 1018.37 1018.43
1015.15 1015.03 1014.82 1014.76 1015.11 1014.53 1013.76 1012.68 1012.72 1012.80 1012.94 1011.49 1010.26 1008.91 1008.96 1008.97 1009.00 1008.39 1008.38 1008.91 1009.74 1010.34 1011.01 1011.39 1011.16 1011.27 1011.80 1012.21 1012.63 1013.03 1013.04 1013.50 1013.99 1014.93 1015.87 1016.53 1017.91 1017.53 1017.42 1017.45 1017.55 1017.68 1017.95 1018.18 1018.34
1015.13 1014.82 1014.58 1014.93 1014.34 1014.04 1013.10 1012.76 1012.66 1012.73 1012.90 1011.09 1009.54 1008.40 1008.59 1009.00 1008.83 1008.47 1008.34 1008.77 1009.73 1010.40 1011.07 1011.60 1011.58 1011.78 1012.11 1012.47 1012.73 1013.33 1013.52 1014.44 1015.23 1016.12 1016.90 1017.53 1017.89 1017.93 1017.73 1017.65 1017.34 1017.42 1017.64 1017.88 1018.12
1014.82 1014.52 1014.62 1014.72 1014.33 1012.84 1012.56 1012.44 1012.77 1013.32 1012.41 1010.87 1009.51 1008.90 1009.05 1009.00 1008.84 1008.61 1008.61 1009.02 1009.86 1010.79 1011.34 1011.71 1011.51 1011.54 1011.94 1012.51 1012.88 1013.42 1014.37 1015.76 1016.82 1017.53 1018.57 1018.60 1018.53 1018.34 1017.78 1017.08 1017.04 1017.01 1017.14 1017.34 1017.56
1014.37 1014.19 1014.27 1013.54 1013.12 1012.49 1012.48 1013.08 1013.73 1013.74 1012.38 1011.36 1010.23 1009.60 1009.50 1009.51 1009.33 1009.25 1009.57 1010.10 1010.88 1011.83 1012.55 1012.27 1012.17 1011.85 1011.88 1012.63 1013.31 1014.07 1015.50 1017.48 1018.72 1019.56 1019.90 1018.96 1018.59 1017.81 1017.07 1016.76 1016.78 1016.79 1016.93 1016.97 1017.13
1013.81 1013.64 1013.51 1012.71 1012.32 1012.26 1012.70 1013.57 1014.21 1013.68 1012.66 1011.48 1010.77 1010.18 1010.20 1009.99 1009.85 1010.06 1010.44 1011.16 1011.41 1011.92 1013.14 1013.28 1013.01 1012.38 1012.08 1012.75 1013.83 1015.22 1016.39 1018.29 1019.92 1021.08 1020.57 1019.29 1018.71 1017.49 1016.84 1016.60 1016.57 1016.76 1017.02 1017.02 1017.10
1013.75 1013.64 1013.65 1012.52 1012.08 1012.46 1013.33 1014.65 1014.69 1013.92 1012.90 1011.99 1011.18 1010.71 1010.63 1010.40 1010.57 1010.69 1011.07 1011.65 1011.75 1011.89 1012.73 1013.57 1013.33 1012.60 1012.57 1012.87 1013.88 1015.41 1016.91 1018.15 1019.78 1021.29 1021.31 1020.17 1018.89 1017.36 1016.89 1016.76 1016.87 1017.06 1017.26 1017.09 1017.59
1014.31 1014.16 1013.49 1012.50 1012.29 1012.98 1014.55 1015.33 1014.78 1013.77 1012.90 1012.18 1011.74 1011.18 1011.01 1011.08 1011.21 1011.40 1011.71 1011.62 1011.78 1011.99 1012.24 1013.48 1013.85 1013.57 1013.27 1013.52 1014.13 1014.84 1016.83 1018.34 1019.88 1021.42 1021.67 1020.60 1019.53 1018.33 1017.52 1017.21 1017.07 1017.11 1017.20 1017.26 1017.39
1014.78 1014.46 1013.40 1012.71 1012.55 1013.96 1015.71 1015.50 1014.58 1013.45 1012.88 1012.41 1011.93 1011.48 1011.37 1011.46 1011.76 1012.02 1011.96 1011.93 1012.02 1012.39 1012.62 1013.64 1014.36 1014.78 1014.34 1014.57 1015.00 1015.78 1017.04 1018.92 1020.21 1021.42 1021.68 1021.31 1019.44 1017.43 1016.88 1016.61 1016.64 1016.86 1017.17 1017.30 1017.58
1015.75 1015.29 1013.51 1012.94 1014.13 1015.61 1015.81 1015.00 1014.23 1013.43 1012.78 1012.24 1012.05 1011.68 1011.61 1011.86 1012.14 1012.34 1012.36 1012.42 1012.46 1012.62 1013.52 1014.44 1015.34 1016.02 1015.77 1015.41 1015.50 1015.93 1017.19 1018.66 1020.50 1021.72 1021.95 1021.33 1018.82 1016.98 1016.73 1016.40 1016.51 1017.20 1017.40 1017.52 1017.87
1017.57 1016.30 1013.80 1013.50 1015.22 1016.09 1015.53 1014.83 1014.15 1013.58 1012.98 1012.33 1012.01 1011.76 1011.81 1012.26 1012.60 1012.63 1012.60 1012.77 1012.74 1013.15 1013.88 1014.57 1016.35 1017.04 1016.73 1016.31 1015.87 1016.41 1017.31 1018.51 1019.92 1020.94 1021.33 1021.20 1018.72 1016.87 1016.63 1016.60 1016.75 1017.13 1017.24 1017.80 1018.08
1018.29 1017.61 1015.96 1015.57 1015.85 1015.62 1015.60 1015.05 1014.45 1013.37 1013.09 1012.54 1012.15 1012.01 1012.07 1012.56 1012.81 1013.06 1013.15 1013.19 1013.26 1013.71 1014.35 1014.77 1016.74 1017.17 1017.44 1016.90 1016.77 1016.94 1017.47 1018.18 1019.11 1020.62 1020.45 1019.83 1018.42 1017.13 1016.78 1016.87 1016.79 1016.88 1017.23 1017.90 1018.35
1019.08 1019.09 1018.36 1017.53 1016.97 1016.11 1015.59 1015.27 1014.73 1014.00 1013.16 1012.64 1012.67 1012.52 1012.64 1013.09 1013.35 1013.49 1013.55 1013.71 1013.93 1014.42 1014.94 1015.56 1017.20 1017.54 1017.48 1017.05 1016.89 1017.03 1017.33 1017.83 1018.61 1018.86 1019.34 1018.53 1018.19 1017.07 1016.67 1016.55 1016.37 1016.99 1017.57 1017.89 1018.17
1019.91 1019.62 1018.82 1018.05 1017.38 1016.55 1016.20 1015.53 1014.97 1014.24 1013.70 1013.13 1013.04 1012.90 1012.90 1013.20 1013.38 1013.92 1014.04 1014.49 1014.67 1015.14 1015.81 1016.66 1017.72 1017.85 1018.04 1017.55 1017.25 1017.18 1017.20 1017.35 1017.68 1017.88 1018.24 1017.90 1017.34 1016.46 1016.22 1016.56 1016.94 1017.35 1017.71 1017.85 1018.08
1020.35 1019.83 1019.40 1018.81 1017.85 1017.17 1016.54 1015.76 1015.09 1014.72 1013.80 1013.29 1013.19 1013.29 1013.43 1013.35 1013.65 1013.98 1014.25 1014.96 1015.29 1015.80 1016.85 1017.62 1018.50 1019.00 1019.03 1018.42 1017.81 1017.67 1017.17 1017.20 1017.17 1017.18 1017.25 1017.43 1016.93 1016.55 1016.61 1016.98 1017.17 1017.31 1017.62 1018.03 1018.21
Thickness
5738 5739 5743 5747 5750 5752 5754 5756 5760 5762 5765 5768 5770 5773 5777 5782 5789 5791 5789 5810 5813 5816 5818 5818 5817 5813 5813 5802 5801 5790 5747 5739 5755 5755 5766 5771 5766 5772 5778 5763 5768 5771 5765 5765 5763
5737 5740 5745 5748 5750 5752 5754 5756 5761 5763 5765 5767 5771 5774 5777 5782 5786 5789 5820 5818 5817 5818 5814 5808 5802 5806 5792 5796 5792 5778 5748 5756 5777 5780 5774 5775 5772 5768 5764 5760 5762 5767 5771 5769 5764
5737 5741 5745 5747 5750 5753 5754 5757 5762 5763 5765 5767 5771 5774 5777 5782 5784 5802 5825 5821 5820 5819 5817 5814 5810 5803 5790 5790 5789 5778 5765 5783 5788 5790 5791 5777 5771 5778 5763 5748 5766 5767 5766 5766 5763
5737 5741 5745 5748 5749 5753 5755 5758 5763 5764 5765 5767 5770 5775 5778 5781 5766 5816 5824 5824 5822 5821 5814 5807 5802 5791 5785 5783 5793 5779 5787 5790 5798 5799 5790 5778 5780 5772 5773 5772 5785 5784 5779 5771 5765
5737 5743 5746 5748 5750 5753 5755 5759 5764 5765 5765 5767 5770 5774 5780 5771 5783 5820 5821 5820 5819 5816 5807 5802 5797 5789 5781 5784 5786 5782 5794 5796 5802 5797 5792 5790 5783 5775 5775 5784 5787 5779 5774 5769 5763
5739 5744 5746 5748 5750 5753 5755 5760 5764 5766 5766 5767 5770 5774 5774 5765 5818 5821 5821 5818 5815 5810 5806 5805 5801 5802 5792 5788 5788 5798 5798 5805 5794 5791 5791 5783 5777 5780 5779 5784 5776 5773 5769 5763 5759
5741 5745 5746 5748 5750 5753 5755 5761 5765 5766 5766 5767 5769 5773 5769 5781 5819 5820 5822 5819 5820 5816 5807 5814 5815 5807 5802 5792 5801 5800 5790 5788 5791 5788 5783 5785 5765 5768 5786 5784 5770 5768 5764 5760 5754
5741 5743 5745 5747 5751 5753 5756 5762 5765 5765 5766 5768 5770 5772 5768 5815 5818 5817 5819 5820 5824 5824 5821 5823 5821 5809 5804 5804 5793 5780 5772 5752 5783 5789 5785 5785 5747 5777 5783 5778 5766 5766 5761 5757 5751
5740 5742 5745 5748 5751 5754 5759 5763 5766 5767 5767 5769 5769 5770 5771 5819 5811 5824 5825 5818 5824 5825 5824 5824 5819 5797 5796 5775 5760 5762 5749 5756 5772 5786 5785 5777 5758 5771 5779 5778 5766 5762 5756 5752 5745
5737 5741 5745 5748 5750 5753 5759 5764 5767 5766 5768 5770 5771 5762 5791 5790 5810 5821 5827 5825 5820 5819 5811 5804 5788 5775 5763 5756 5732 5755 5755 5758 5760 5775 5771 5762 5750 5757 5767 5768 5754 5750 5750 5745 5740
5736 5740 5744 5747 5748 5753 5762 5765 5756 5757 5767 5771 5775 5776 5787 5806 5818 5813 5824 5818 5814 5797 5774 5784 5765 5755 5768 5773 5774 5761 5759 5757 5768 5772 5758 5744 5738 5740 5749 5744 5742 5743 5742 5740 5737
5735 5740 5743 5745 5748 5754 5757 5756 5763 5767 5753 5779 5777 5780 5795 5806 5788 5807 5825 5799 5792 5770 5779 5764 5756 5778 5778 5774 5768 5762 5752 5749 5760 5766 5753 5741 5735 5736 5739 5737 5737 5735 5734 5734 5732
5734 5739 5741 5745 5749 5752 5756 5763 5774 5775 5746 5766 5779 5783 5793 5796 5785 5791 5809 5797 5785 5774 5772 5759 5774 5786 5775 5767 5759 5756 5751 5752 5749 5752 5748 5737 5724 5729 5738 5735 5733 5732 5731 5728 5725
5734 5737 5741 5744 5744 5751 5755 5772 5773 5774 5723 5751 5769 5787 5794 5797 5782 5810 5813 5800 5784 5774 5767 5769 5781 5774 5770 5765 5759 5746 5764 5759 5752 5732 5708 5726 5686 5717 5722 5725 5729 5730 5726 5724 5724
5731 5737 5741 5740 5749 5750 5765 5771 5772 5765 5689 5757 5770 5805 5796 5782 5790 5796 5815 5801 5776 5778 5774 5765 5765 5762 5755 5760 5765 5754 5759 5747 5738 5717 5714 5706 5690 5702 5719 5721 5727 5729 5726 5723 5721
5731 5736 5738 5740 5747 5762 5768 5769 5764 5712 5696 5742 5771 5771 5772 5780 5785 5796 5797 5803 5794 5772 5770 5766 5780 5775 5766 5763 5764 5762 5750 5724 5710 5701 5680 5698 5692 5691 5702 5717 5724 5729 5726 5725 5723
5732 5737 5738 5747 5750 5763 5766 5754 5706 5690 5738 5736 5750 5764 5763 5763 5772 5780 5774 5767 5752 5738 5736 5752 5755 5770 5772 5757 5756 5746 5718 5679 5680 5664 5674 5693 5689 5694 5715 5721 5722 5723 5723 5724 5721
5734 5739 5743 5752 5759 5762 5756 5725 5697 5715 5721 5749 5752 5756 5747 5760 5765 5766 5761 5749 5764 5751 5725 5720 5716 5755 5770 5758 5741 5729 5718 5678 5678 5658 5669 5691 5688 5696 5721 5726 5724 5721 5718 5719 5715
5731 5735 5739 5751 5757 5755 5732 5686 5693 5712 5734 5736 5744 5742 5743 5756 5757 5758 5753 5745 5755 5757 5732 5722 5729 5761 5760 5763 5752 5730 5705 5711 5673 5666 5660 5671 5693 5712 5720 5719 5717 5713 5709 5709 5703
5720 5724 5733 5747 5751 5742 5707 5690 5706 5725 5736 5739 5727 5742 5733 5743 5744 5743 5743 5761 5761 5764 5766 5742 5720 5747 5755 5756 5747 5743 5722 5693 5673 5667 5664 5665 5671 5678 5702 5703 5707 5704 5702 5702 5701
5713 5712 5731 5741 5744 5715 5687 5690 5708 5731 5738 5732 5732 5736 5740 5740 5740 5735 5739 5759 5764 5760 5760 5744 5724 5729 5743 5731 5726 5719 5707 5685 5677 5664 5649 5645 5661 5699 5704 5706 5703 5700 5699 5697 5694
5697 5696 5727 5735 5699 5681 5687 5700 5718 5725 5736 5736 5739 5742 5740 5740 5736 5736 5739 5748 5757 5764 5748 5741 5715 5704 5723 5733 5732 5728 5708 5689 5661 5667 5649 5643 5657 5711 5704 5701 5700 5694 5693 5691 5686
5677 5685 5720 5724 5680 5681 5697 5709 5716 5719 5724 5731 5734 5742 5744 5735 5730 5737 5743 5753 5755 5755 5746 5742 5706 5680 5696 5710 5724 5712 5710 5685 5670 5657 5655 5640 5661 5707 5706 5702 5699 5692 5690 5684 5680
5671 5678 5692 5696 5690 5692 5696 5700 5699 5721 5720 5728 5733 5738 5737 5727 5730 5730 5735 5744 5752 5746 5741 5737 5701 5695 5677 5696 5703 5704 5702 5694 5679 5653 5658 5658 5675 5693 5699 5696 5695 5692 5687 5677 5669
5657 5663 5670 5674 5682 5691 5698 5699 5696 5700 5721 5726 5721 5727 5727 5720 5723 5725 5733 5738 5744 5742 5736 5728 5702 5705 5702 5708 5706 5701 5697 5693 5681 5679 5667 5677 5673 5687 5687 5689 5690 5685 5678 5673 5667
5651 5657 5663 5666 5674 5685 5682 5690 5692 5700 5708 5713 5713 5720 5724 5719 5723 5719 5727 5728 5732 5733 5723 5710 5691 5702 5692 5698 5695 5691 5692 5689 5687 5684 5673 5678 5677 5688 5695 5688 5682 5676 5668 5666 5661
5640 5648 5655 5657 5666 5670 5672 5687 5693 5695 5711 5719 5718 5711 5713 5722 5731 5733 5731 5723 5725 5722 5707 5700 5684 5675 5676 5681 5682 5667 5685 5685 5687 5686 5684 5670 5679 5686 5682 5678 5674 5669 5663 5657 5654